Data No, UTC Date,UTC Time,Latitude,Longitude,Course(deg),Temp(degC),Sal(psu)
523,2018/5/7,8:42,42-36.74N,141-36.87E,214,8.325,30.6098
524,2018/5/7,8:43,42-36.49N,141-36.77E,185,8.319,30.548
525,2018/5/7,8:44,42-36.22N,141-36.85E,161,8.204,30.5879
526,2018/5/7,8:45,42-35.97N,141-36.99E,157,7.554,30.5018
527,2018/5/7,8:46,42-35.69N,141-37.14E,157,7.865,30.7372
528,2018/5/7,8:47,42-35.41N,141-37.30E,158,8.054,30.7041
529,2018/5/7,8:48,42-35.12N,141-37.45E,158,7.778,30.564
530,2018/5/7,8:49,42-34.83N,141-37.60E,159,7.459,30.4418
531,2018/5/7,8:50,42-34.53N,141-37.75E,159,7.187,30.5292
532,2018/5/7,8:51,42-34.23N,141-37.90E,159,7.027,30.7014
533,2018/5/7,8:52,42-33.93N,141-38.05E,159,6.51,30.6998
534,2018/5/7,8:53,42-33.63N,141-38.21E,159,6.253,31.1689
535,2018/5/7,8:54,42-33.31N,141-38.37E,159,6.275,31.5607
536,2018/5/7,8:55,42-33.00N,141-38.53E,159,6.476,31.766
537,2018/5/7,8:56,42-32.69N,141-38.69E,159,6.826,31.8675
538,2018/5/7,8:57,42-32.37N,141-38.85E,159,6.795,31.928
539,2018/5/7,8:58,42-32.05N,141-39.02E,159,6.559,31.9053
540,2018/5/7,8:59,42-31.73N,141-39.18E,159,6.304,31.8911
541,2018/5/7,9:00,42-31.41N,141-39.34E,159,6.47,31.9637
542,2018/5/7,9:01,42-31.09N,141-39.51E,159,6.592,32.0082
543,2018/5/7,9:02,42-30.76N,141-39.67E,159,6.575,32.0089
544,2018/5/7,9:03,42-30.43N,141-39.84E,159,6.612,32.0236
545,2018/5/7,9:04,42-30.10N,141-40.01E,159,6.798,32.0096
546,2018/5/7,9:05,42-29.77N,141-40.18E,159,6.796,31.9521
547,2018/5/7,9:06,42-29.44N,141-40.34E,159,6.898,31.9168
548,2018/5/7,9:07,42-29.11N,141-40.51E,157,7.082,31.9113
549,2018/5/7,9:08,42-28.86N,141-40.83E,128,7.267,31.9017
550,2018/5/7,9:09,42-28.66N,141-41.22E,125,7.184,31.9286
551,2018/5/7,9:10,42-28.45N,141-41.61E,125,7.213,31.9204
552,2018/5/7,9:11,42-28.24N,141-42.00E,125,7.164,31.8457
553,2018/5/7,9:12,42-28.03N,141-42.40E,126,7.169,31.8083
554,2018/5/7,9:13,42-27.80N,141-42.81E,126,7.231,31.7685
555,2018/5/7,9:14,42-27.59N,141-43.20E,126,7.296,31.7061
556,2018/5/7,9:15,42-27.36N,141-43.60E,127,7.313,31.6246
557,2018/5/7,9:16,42-27.14N,141-43.99E,127,6.716,31.4867
558,2018/5/7,9:17,42-26.91N,141-44.40E,127,6.582,31.6187
559,2018/5/7,9:18,42-26.68N,141-44.79E,127,6.676,31.6034
560,2018/5/7,9:19,42-26.46N,141-45.18E,128,6.317,31.4794
561,2018/5/7,9:20,42-26.23N,141-45.58E,127,5.968,31.6509
562,2018/5/7,9:21,42-26.00N,141-45.98E,126,5.923,31.8533
563,2018/5/7,9:22,42-25.81N,141-46.40E,121,5.779,31.9006
564,2018/5/7,9:23,42-25.62N,141-46.82E,120,5.855,31.9818
565,2018/5/7,9:24,42-25.44N,141-47.24E,120,5.832,31.9532
566,2018/5/7,9:25,42-25.25N,141-47.67E,120,5.796,31.9365
567,2018/5/7,9:26,42-25.07N,141-48.10E,120,5.804,31.9188
568,2018/5/7,9:27,42-24.88N,141-48.54E,120,5.767,31.9085
569,2018/5/7,9:28,42-24.69N,141-48.97E,120,5.77,31.9084
570,2018/5/7,9:29,42-24.54N,141-49.41E,111,5.795,31.9318
571,2018/5/7,9:30,42-24.40N,141-49.86E,115,5.982,31.9536
572,2018/5/7,9:31,42-24.22N,141-50.30E,120,6.277,31.8125
573,2018/5/7,9:32,42-24.04N,141-50.73E,119,6.161,31.4794
574,2018/5/7,9:33,42-23.86N,141-51.17E,118,5.797,31.8404
575,2018/5/7,9:34,42-23.67N,141-51.61E,119,6.789,31.8977
576,2018/5/7,9:35,42-23.49N,141-52.04E,120,5.993,31.1215
577,2018/5/7,9:36,42-23.31N,141-52.47E,120,5.157,31.5505
578,2018/5/7,9:37,42-23.12N,141-52.90E,120,5.224,32.0758
579,2018/5/7,9:38,42-22.94N,141-53.33E,120,4.794,32.1455
580,2018/5/7,9:39,42-22.73N,141-53.73E,130,5.491,32.3351
581,2018/5/7,9:40,42-22.53N,141-54.13E,122,5.67,32.2611
582,2018/5/7,9:41,42-22.32N,141-54.54E,123,5.799,32.2368
583,2018/5/7,9:42,42-22.12N,141-54.94E,124,5.789,32.3228
584,2018/5/7,9:43,42-21.93N,141-55.35E,122,6.152,32.4236
585,2018/5/7,9:44,42-21.74N,141-55.77E,120,6.312,32.5026
586,2018/5/7,9:45,42-21.56N,141-56.20E,120,6.4,32.535
587,2018/5/7,9:46,42-21.37N,141-56.64E,120,6.4,32.5447
588,2018/5/7,9:47,42-21.19N,141-57.06E,120,6.408,32.5462
589,2018/5/7,9:48,42-21.00N,141-57.48E,120,6.325,32.5519
590,2018/5/7,9:49,42-20.81N,141-57.92E,120,6.643,32.5809
591,2018/5/7,9:50,42-20.63N,141-58.35E,120,6.957,32.631
592,2018/5/7,9:51,42-20.44N,141-58.78E,120,7.556,32.7308
593,2018/5/7,9:52,42-20.25N,141-59.20E,120,7.683,32.878
594,2018/5/7,9:53,42-20.07N,141-59.64E,120,7.404,32.916
595,2018/5/7,9:54,42-19.88N,142-00.07E,120,7.442,32.908
596,2018/5/7,9:55,42-19.69N,142-00.52E,119,7.629,32.9147
597,2018/5/7,9:56,42-19.50N,142-00.95E,120,7.715,32.9249
598,2018/5/7,9:57,42-19.32N,142-01.39E,119,7.792,32.9133
599,2018/5/7,9:58,42-19.13N,142-01.83E,119,7.796,32.9388
600,2018/5/7,9:59,42-18.95N,142-02.27E,119,7.252,32.9833
601,2018/5/7,10:00,42-18.76N,142-02.72E,119,7.13,32.9912
602,2018/5/7,10:01,42-18.58N,142-03.16E,119,7.132,32.972
603,2018/5/7,10:02,42-18.40N,142-03.59E,119,6.942,32.9624
604,2018/5/7,10:03,42-18.22N,142-04.03E,119,6.978,32.9617
605,2018/5/7,10:04,42-18.04N,142-04.46E,119,6.816,32.9569
606,2018/5/7,10:05,42-17.86N,142-04.91E,119,6.837,32.9553
607,2018/5/7,10:06,42-17.68N,142-05.35E,119,6.911,32.9504
608,2018/5/7,10:07,42-17.50N,142-05.79E,119,6.915,32.9376
609,2018/5/7,10:08,42-17.32N,142-06.22E,119,6.848,32.9271
610,2018/5/7,10:09,42-17.14N,142-06.66E,118,6.858,32.9219
611,2018/5/7,10:10,42-16.96N,142-07.09E,119,6.904,32.9145
612,2018/5/7,10:11,42-16.78N,142-07.53E,119,6.879,32.9044
613,2018/5/7,10:12,42-16.59N,142-07.97E,119,6.978,32.887
614,2018/5/7,10:13,42-16.41N,142-08.42E,119,7.001,32.8744
615,2018/5/7,10:14,42-16.23N,142-08.85E,119,6.668,32.8626
616,2018/5/7,10:15,42-16.04N,142-09.28E,119,6.553,32.8125
617,2018/5/7,10:16,42-15.86N,142-09.72E,119,6.388,32.7613
618,2018/5/7,10:17,42-15.67N,142-10.17E,119,6.385,32.7226
619,2018/5/7,10:18,42-15.49N,142-10.61E,119,6.358,32.7098
620,2018/5/7,10:19,42-15.30N,142-11.05E,119,6.326,32.6888
621,2018/5/7,10:20,42-15.12N,142-11.48E,119,6.267,32.6755
622,2018/5/7,10:21,42-14.93N,142-11.92E,119,6.33,32.6727
623,2018/5/7,10:22,42-14.75N,142-12.36E,119,6.428,32.6801
624,2018/5/7,10:23,42-14.56N,142-12.81E,119,6.251,32.6906
625,2018/5/7,10:24,42-14.37N,142-13.26E,119,6.208,32.668
626,2018/5/7,10:25,42-14.18N,142-13.70E,119,6.331,32.644
627,2018/5/7,10:26,42-14.00N,142-14.14E,119,6.486,32.647
628,2018/5/7,10:27,42-13.81N,142-14.58E,119,6.432,32.6553
629,2018/5/7,10:28,42-13.62N,142-15.03E,119,6.565,32.6452
630,2018/5/7,10:29,42-13.43N,142-15.48E,119,6.513,32.6508
631,2018/5/7,10:30,42-13.24N,142-15.91E,119,6.608,32.6548
632,2018/5/7,10:31,42-13.06N,142-16.36E,119,6.904,32.661
633,2018/5/7,10:32,42-12.87N,142-16.80E,119,7.024,32.7071
634,2018/5/7,10:33,42-12.67N,142-17.26E,119,6.97,32.7259
635,2018/5/7,10:34,42-12.49N,142-17.70E,119,6.914,32.7236
636,2018/5/7,10:35,42-12.30N,142-18.14E,119,6.851,32.7121
637,2018/5/7,10:36,42-12.11N,142-18.58E,119,6.743,32.6862
638,2018/5/7,10:37,42-11.93N,142-19.03E,119,6.858,32.6699
639,2018/5/7,10:38,42-11.74N,142-19.48E,119,6.991,32.6935
640,2018/5/7,10:39,42-11.56N,142-19.94E,118,5.932,32.7078
641,2018/5/7,10:40,42-11.37N,142-20.38E,118,5.368,32.5052
642,2018/5/7,10:41,42-11.19N,142-20.83E,118,4.977,32.3621
643,2018/5/7,10:42,42-11.00N,142-21.28E,118,4.993,32.3044
644,2018/5/7,10:43,42-10.82N,142-21.72E,119,4.913,32.2872
645,2018/5/7,10:44,42-10.63N,142-22.17E,119,4.572,32.2816
646,2018/5/7,10:45,42-10.44N,142-22.62E,119,4.31,32.2825
647,2018/5/7,10:46,42-10.26N,142-23.07E,119,4.244,32.2899
648,2018/5/7,10:47,42-10.07N,142-23.51E,119,4.32,32.2923
649,2018/5/7,10:48,42-09.89N,142-23.96E,119,4.357,32.2981
650,2018/5/7,10:49,42-09.70N,142-24.40E,119,4.752,32.3052
651,2018/5/7,10:50,42-09.51N,142-24.85E,119,4.907,32.3071
652,2018/5/7,10:51,42-09.32N,142-25.31E,119,4.997,32.2955
653,2018/5/7,10:52,42-09.13N,142-25.75E,119,4.703,32.2761
654,2018/5/7,10:53,42-08.94N,142-26.19E,120,4.567,32.2691
655,2018/5/7,10:54,42-08.75N,142-26.63E,119,4.129,32.2677
656,2018/5/7,10:55,42-08.56N,142-27.07E,120,4.194,32.2793
657,2018/5/7,10:56,42-08.37N,142-27.51E,120,4.075,32.2798
658,2018/5/7,10:57,42-08.18N,142-27.94E,120,4.263,32.2908
659,2018/5/7,10:58,42-07.99N,142-28.38E,119,4.327,32.3047
660,2018/5/7,10:59,42-07.80N,142-28.83E,119,4.342,32.3154
661,2018/5/7,11:00,42-07.61N,142-29.27E,120,4.361,32.324
662,2018/5/7,11:01,42-07.42N,142-29.72E,120,4.358,32.3175
663,2018/5/7,11:02,42-07.22N,142-30.15E,120,4.315,32.3152
664,2018/5/7,11:03,42-07.03N,142-30.59E,120,4.279,32.316
665,2018/5/7,11:04,42-06.84N,142-31.02E,120,4.347,32.3184
666,2018/5/7,11:05,42-06.65N,142-31.46E,120,4.202,32.3162
667,2018/5/7,11:06,42-06.46N,142-31.89E,120,4.172,32.3161
668,2018/5/7,11:07,42-06.26N,142-32.34E,120,4.286,32.317
669,2018/5/7,11:08,42-06.07N,142-32.77E,120,4.316,32.3189
670,2018/5/7,11:09,42-05.87N,142-33.21E,121,4.286,32.3244
671,2018/5/7,11:10,42-05.67N,142-33.65E,120,4.384,32.3283
672,2018/5/7,11:11,42-05.47N,142-34.10E,120,4.414,32.3248
673,2018/5/7,11:12,42-05.28N,142-34.54E,120,4.216,32.3197
674,2018/5/7,11:13,42-05.09N,142-34.97E,120,4.295,32.3267
675,2018/5/7,11:14,42-04.89N,142-35.41E,120,4.582,32.3624
676,2018/5/7,11:15,42-04.70N,142-35.86E,119,4.705,32.3975
677,2018/5/7,11:16,42-04.51N,142-36.31E,119,5.015,32.4421
678,2018/5/7,11:17,42-04.32N,142-36.75E,119,5.138,32.4941
679,2018/5/7,11:18,42-04.14N,142-37.19E,119,4.921,32.5029
680,2018/5/7,11:19,42-03.95N,142-37.64E,119,4.697,32.4619
681,2018/5/7,11:20,42-03.76N,142-38.09E,119,4.539,32.4091
682,2018/5/7,11:21,42-03.57N,142-38.53E,119,4.556,32.3494
683,2018/5/7,11:22,42-03.38N,142-38.99E,119,4.527,32.3266
684,2018/5/7,11:23,42-03.19N,142-39.44E,119,4.514,32.3197
685,2018/5/7,11:24,42-03.01N,142-39.89E,119,4.564,32.3161
686,2018/5/7,11:25,42-02.81N,142-40.34E,119,4.495,32.3143
687,2018/5/7,11:26,42-02.62N,142-40.79E,119,4.562,32.3132
688,2018/5/7,11:27,42-02.43N,142-41.24E,120,4.604,32.3144
689,2018/5/7,11:28,42-02.24N,142-41.68E,119,4.524,32.3127
690,2018/5/7,11:29,42-02.05N,142-42.12E,119,4.782,32.3085
691,2018/5/7,11:30,42-01.87N,142-42.57E,119,4.773,32.2733
692,2018/5/7,11:31,42-01.67N,142-43.02E,120,4.66,32.246
693,2018/5/7,11:32,42-01.48N,142-43.45E,120,4.625,32.2183
694,2018/5/7,11:33,42-01.30N,142-43.89E,120,4.746,32.1965
695,2018/5/7,11:34,42-01.11N,142-44.32E,120,4.745,32.185
696,2018/5/7,11:35,42-00.91N,142-44.77E,120,4.71,32.1726
697,2018/5/7,11:36,42-00.72N,142-45.20E,120,4.787,32.1671
698,2018/5/7,11:37,42-00.53N,142-45.64E,120,4.64,32.1569
699,2018/5/7,11:38,42-00.34N,142-46.07E,120,4.666,32.1631
700,2018/5/7,11:39,42-00.15N,142-46.52E,120,4.721,32.1636
701,2018/5/7,11:40,41-59.96N,142-46.96E,120,4.52,32.1602
702,2018/5/7,11:41,41-59.77N,142-47.39E,120,4.553,32.1744
703,2018/5/7,11:42,41-59.57N,142-47.83E,120,4.63,32.1716
704,2018/5/7,11:43,41-59.38N,142-48.27E,120,4.746,32.1656
705,2018/5/7,11:44,41-59.18N,142-48.71E,120,4.623,32.1979
706,2018/5/7,11:45,41-58.99N,142-49.14E,120,4.635,32.2654
707,2018/5/7,11:46,41-58.80N,142-49.59E,120,4.622,32.2951
708,2018/5/7,11:47,41-58.61N,142-50.03E,120,4.721,32.3117
709,2018/5/7,11:48,41-58.41N,142-50.48E,120,4.218,32.3194
710,2018/5/7,11:49,41-58.22N,142-50.91E,120,4.15,32.2894
711,2018/5/7,11:50,41-58.02N,142-51.35E,120,4.446,32.2761
712,2018/5/7,11:51,41-57.83N,142-51.80E,120,4.236,32.2646
713,2018/5/7,11:52,41-57.64N,142-52.25E,120,4.361,32.2606
714,2018/5/7,11:53,41-57.44N,142-52.69E,120,4.431,32.2491
715,2018/5/7,11:54,41-57.26N,142-53.12E,119,4.417,32.2428
716,2018/5/7,11:55,41-57.07N,142-53.56E,119,4.711,32.2376
717,2018/5/7,11:56,41-56.89N,142-54.00E,119,4.77,32.1815
718,2018/5/7,11:57,41-56.71N,142-54.43E,119,4.848,32.129
719,2018/5/7,11:58,41-56.52N,142-54.86E,119,4.977,32.0913
720,2018/5/7,11:59,41-56.34N,142-55.30E,119,5.062,32.065
721,2018/5/7,12:00,41-56.15N,142-55.74E,119,5.177,32.0431
722,2018/5/7,12:01,41-55.97N,142-56.18E,119,5.334,32.0237
723,2018/5/7,12:02,41-55.78N,142-56.61E,119,5,32.022
724,2018/5/7,12:03,41-55.59N,142-57.06E,119,4.453,32.0371
725,2018/5/7,12:04,41-55.40N,142-57.50E,119,4.315,32.0913
726,2018/5/7,12:05,41-55.22N,142-57.92E,120,4.199,32.1135
727,2018/5/7,12:06,41-55.03N,142-58.36E,119,4.209,32.126
728,2018/5/7,12:07,41-54.85N,142-58.80E,119,4.354,32.142
729,2018/5/7,12:08,41-54.66N,142-59.23E,120,4.319,32.1325
730,2018/5/7,12:09,41-54.47N,142-59.67E,120,4.551,32.1068
731,2018/5/7,12:10,41-54.28N,143-00.09E,120,4.519,32.0925
732,2018/5/7,12:11,41-54.09N,143-00.52E,120,4.53,32.0839
733,2018/5/7,12:12,41-53.91N,143-00.94E,119,4.597,32.0787
734,2018/5/7,12:13,41-53.71N,143-01.37E,120,4.705,32.0619
735,2018/5/7,12:14,41-53.52N,143-01.80E,121,4.649,32.0263
736,2018/5/7,12:15,41-53.33N,143-02.22E,120,4.445,32.029
737,2018/5/7,12:16,41-53.14N,143-02.65E,121,4.379,32.0426
738,2018/5/7,12:17,41-52.95N,143-03.08E,121,4.371,32.0495
739,2018/5/7,12:18,41-52.75N,143-03.51E,121,4.575,32.0423
740,2018/5/7,12:19,41-52.56N,143-03.94E,121,4.597,32.0036
741,2018/5/7,12:20,41-52.36N,143-04.37E,121,4.812,32.0091
742,2018/5/7,12:21,41-52.18N,143-04.78E,120,4.764,31.9939
743,2018/5/7,12:22,41-51.99N,143-05.21E,120,4.732,32.0471
744,2018/5/7,12:23,41-51.80N,143-05.64E,120,4.615,32.1023
745,2018/5/7,12:24,41-51.60N,143-06.08E,120,4.504,32.1245
746,2018/5/7,12:25,41-51.41N,143-06.50E,120,4.472,32.1353
747,2018/5/7,12:26,41-51.22N,143-06.94E,120,4.446,32.1412
748,2018/5/7,12:27,41-51.02N,143-07.38E,120,4.446,32.1384
749,2018/5/7,12:28,41-50.83N,143-07.82E,119,4.734,32.1227
750,2018/5/7,12:29,41-50.64N,143-08.26E,119,5.091,32.0395
751,2018/5/7,12:30,41-50.45N,143-08.69E,120,4.934,31.8232
752,2018/5/7,12:31,41-50.26N,143-09.12E,120,4.829,31.7315
753,2018/5/7,12:32,41-50.04N,143-09.61E,120,4.705,31.7728
754,2018/5/7,12:33,41-49.87N,143-10.00E,119,4.857,31.8193
755,2018/5/7,12:34,41-49.70N,143-10.41E,120,5.226,31.8073
756,2018/5/7,12:35,41-49.50N,143-10.84E,120,5.063,31.7868
757,2018/5/7,12:36,41-49.32N,143-11.27E,119,4.894,31.7986
758,2018/5/7,12:37,41-49.14N,143-11.69E,120,4.955,31.8067
759,2018/5/7,12:38,41-48.95N,143-12.11E,121,4.892,31.8046
760,2018/5/7,12:39,41-48.75N,143-12.54E,121,4.825,31.8001
761,2018/5/7,12:40,41-48.56N,143-12.97E,121,4.77,31.8075
762,2018/5/7,12:41,41-48.36N,143-13.40E,121,4.814,31.8246
763,2018/5/7,12:42,41-48.16N,143-13.81E,121,4.83,31.827
764,2018/5/7,12:43,41-47.97N,143-14.24E,122,4.854,31.828
765,2018/5/7,12:44,41-47.77N,143-14.67E,121,4.858,31.8256
766,2018/5/7,12:45,41-47.57N,143-15.09E,119,4.868,31.8154
767,2018/5/7,12:46,41-47.54N,143-15.54E,86,4.909,31.8102
768,2018/5/7,12:47,41-47.55N,143-16.04E,90,4.991,31.7983
769,2018/5/7,12:48,41-47.59N,143-16.48E,77,4.888,31.7868
770,2018/5/7,12:49,41-47.68N,143-16.93E,73,4.819,31.7998
771,2018/5/7,12:50,41-47.78N,143-17.38E,74,4.869,31.8052
772,2018/5/7,12:51,41-47.87N,143-17.84E,75,4.974,31.7902
773,2018/5/7,12:52,41-47.96N,143-18.30E,75,5.051,31.7674
774,2018/5/7,12:53,41-48.05N,143-18.77E,76,5.073,31.748
775,2018/5/7,12:54,41-48.14N,143-19.24E,76,5.126,31.7378
776,2018/5/7,12:55,41-48.22N,143-19.70E,76,5.217,31.7342
777,2018/5/7,12:56,41-48.30N,143-20.17E,77,5.193,31.7341
778,2018/5/7,12:57,41-48.38N,143-20.65E,77,5.242,31.7981
779,2018/5/7,12:58,41-48.46N,143-21.12E,77,5.359,31.8778
780,2018/5/7,12:59,41-48.55N,143-21.59E,71,5.332,31.8922
781,2018/5/7,13:00,41-48.76N,143-21.94E,47,5.245,31.9133
782,2018/5/7,13:01,41-49.04N,143-22.18E,29,5.116,31.923
783,2018/5/7,13:02,41-49.35N,143-22.40E,27,5.114,31.9361
784,2018/5/7,13:03,41-49.67N,143-22.62E,27,5.107,31.9708
785,2018/5/7,13:04,41-49.98N,143-22.85E,28,5.108,31.974
786,2018/5/7,13:05,41-50.28N,143-23.08E,30,5.14,31.9425
787,2018/5/7,13:06,41-50.58N,143-23.31E,29,5.176,31.9155
788,2018/5/7,13:07,41-50.89N,143-23.54E,29,5.326,31.9044
789,2018/5/7,13:08,41-51.21N,143-23.78E,29,5.392,31.8599
790,2018/5/7,13:09,41-51.51N,143-24.02E,30,5.433,31.8044
791,2018/5/7,13:10,41-51.82N,143-24.26E,30,5.481,31.761
792,2018/5/7,13:11,41-52.12N,143-24.49E,30,5.513,31.7138
793,2018/5/7,13:12,41-52.42N,143-24.73E,30,5.519,31.6857
794,2018/5/7,13:13,41-52.73N,143-24.97E,30,5.523,31.6645
795,2018/5/7,13:14,41-53.04N,143-25.22E,30,5.572,31.6365
796,2018/5/7,13:15,41-53.35N,143-25.46E,30,5.615,31.5795
797,2018/5/7,13:16,41-53.66N,143-25.71E,31,5.684,31.5336
798,2018/5/7,13:17,41-53.96N,143-25.95E,30,5.766,31.4907
799,2018/5/7,13:18,41-54.27N,143-26.20E,30,5.843,31.4641
800,2018/5/7,13:19,41-54.58N,143-26.44E,30,5.895,31.4314
801,2018/5/7,13:20,41-54.89N,143-26.68E,30,5.903,31.4164
802,2018/5/7,13:21,41-55.20N,143-26.94E,31,5.961,31.4021
803,2018/5/7,13:22,41-55.51N,143-27.19E,31,6.001,31.3875
804,2018/5/7,13:23,41-55.82N,143-27.44E,31,6.036,31.3674
805,2018/5/7,13:24,41-56.12N,143-27.68E,31,5.907,31.3401
806,2018/5/7,13:25,41-56.43N,143-27.93E,30,5.916,31.3233
807,2018/5/7,13:26,41-56.74N,143-28.17E,31,6.049,31.3145
808,2018/5/7,13:27,41-57.05N,143-28.42E,30,6.024,31.2991
809,2018/5/7,13:28,41-57.36N,143-28.66E,30,6.043,31.2828
810,2018/5/7,13:29,41-57.67N,143-28.90E,30,6.123,31.2534
811,2018/5/7,13:30,41-57.98N,143-29.14E,30,6.038,31.2326
812,2018/5/7,13:31,41-58.29N,143-29.38E,29,5.974,31.2518
813,2018/5/7,13:32,41-58.60N,143-29.62E,29,5.897,31.3048
814,2018/5/7,13:33,41-58.91N,143-29.87E,30,5.751,31.3735
815,2018/5/7,13:34,41-59.22N,143-30.11E,30,5.703,31.47
816,2018/5/7,13:35,41-59.54N,143-30.35E,29,5.664,31.539
817,2018/5/7,13:36,41-59.84N,143-30.59E,30,5.492,31.6546
818,2018/5/7,13:37,42-00.16N,143-30.83E,29,5.307,31.7762
819,2018/5/7,13:38,42-00.47N,143-31.08E,30,5.185,31.8514
820,2018/5/7,13:39,42-00.79N,143-31.31E,28,5.371,31.9499
821,2018/5/7,13:40,42-01.10N,143-31.55E,29,5.428,31.8909
822,2018/5/7,13:41,42-01.41N,143-31.79E,30,5.45,31.8267
823,2018/5/7,13:42,42-01.72N,143-32.03E,29,5.42,31.8166
824,2018/5/7,13:43,42-02.04N,143-32.27E,29,5.451,31.7993
825,2018/5/7,13:44,42-02.36N,143-32.52E,29,5.421,31.7656
826,2018/5/7,13:45,42-02.67N,143-32.76E,30,5.419,31.7734
827,2018/5/7,13:46,42-02.98N,143-33.00E,30,5.283,31.8311
828,2018/5/7,13:47,42-03.30N,143-33.24E,29,5.024,31.9422
829,2018/5/7,13:48,42-03.61N,143-33.48E,30,4.887,32.0793
830,2018/5/7,13:49,42-03.93N,143-33.73E,29,4.814,32.1581
831,2018/5/7,13:50,42-04.25N,143-33.97E,30,4.868,32.1984
832,2018/5/7,13:51,42-04.57N,143-34.21E,28,4.912,32.2141
833,2018/5/7,13:52,42-04.89N,143-34.45E,29,4.88,32.2295
834,2018/5/7,13:53,42-05.20N,143-34.69E,29,4.919,32.2436
835,2018/5/7,13:54,42-05.52N,143-34.93E,29,4.888,32.2469
836,2018/5/7,13:55,42-05.84N,143-35.17E,29,4.946,32.2376
837,2018/5/7,13:56,42-06.16N,143-35.42E,30,5.016,32.2286
838,2018/5/7,13:57,42-06.48N,143-35.66E,29,4.993,32.2108
839,2018/5/7,13:58,42-06.80N,143-35.91E,30,4.912,32.1912
840,2018/5/7,13:59,42-07.11N,143-36.15E,30,5.029,32.1741
841,2018/5/7,14:00,42-07.43N,143-36.40E,30,5.069,32.1255
842,2018/5/7,14:01,42-07.75N,143-36.64E,29,5.122,32.0914
843,2018/5/7,14:02,42-08.07N,143-36.89E,29,5.07,32.0777
844,2018/5/7,14:03,42-08.39N,143-37.13E,29,5.06,32.0803
845,2018/5/7,14:04,42-08.70N,143-37.37E,29,5.142,32.0714
846,2018/5/7,14:05,42-09.02N,143-37.62E,29,5.133,32.0652
847,2018/5/7,14:06,42-09.32N,143-37.85E,29,5.105,32.0773
848,2018/5/7,14:07,42-09.63N,143-38.09E,29,5.157,32.0829
849,2018/5/7,14:08,42-09.94N,143-38.32E,29,5.172,32.0784
850,2018/5/7,14:09,42-10.25N,143-38.56E,30,5.11,32.0784
851,2018/5/7,14:10,42-10.57N,143-38.80E,29,5.102,32.0968
852,2018/5/7,14:11,42-10.88N,143-39.04E,29,5.101,32.0996
853,2018/5/7,14:12,42-11.19N,143-39.28E,29,5.202,32.1142
854,2018/5/7,14:13,42-11.50N,143-39.52E,29,5.14,32.1442
855,2018/5/7,14:14,42-11.81N,143-39.75E,29,4.908,32.2108
856,2018/5/7,14:15,42-12.13N,143-40.00E,30,4.712,32.3153
857,2018/5/7,14:16,42-12.44N,143-40.24E,29,4.769,32.3595
858,2018/5/7,14:17,42-12.75N,143-40.48E,30,4.915,32.3652
859,2018/5/7,14:18,42-13.06N,143-40.72E,30,4.982,32.3662
860,2018/5/7,14:19,42-13.37N,143-40.96E,28,4.852,32.3648
861,2018/5/7,14:20,42-13.69N,143-41.20E,29,4.955,32.3599
862,2018/5/7,14:21,42-14.00N,143-41.44E,30,5.039,32.3679
863,2018/5/7,14:22,42-14.30N,143-41.67E,29,4.955,32.4007
864,2018/5/7,14:23,42-14.60N,143-41.90E,29,4.947,32.4332
865,2018/5/7,14:24,42-14.90N,143-42.13E,29,4.985,32.4347
866,2018/5/7,14:25,42-15.20N,143-42.36E,29,5.059,32.4301
867,2018/5/7,14:26,42-15.49N,143-42.58E,29,5.087,32.4479
868,2018/5/7,14:27,42-15.79N,143-42.81E,29,5.138,32.4659
869,2018/5/7,14:28,42-16.09N,143-43.04E,29,5.025,32.4763
870,2018/5/7,14:29,42-16.38N,143-43.27E,29,5.164,32.4759
871,2018/5/7,14:30,42-16.68N,143-43.50E,29,5.129,32.4683
872,2018/5/7,14:31,42-16.98N,143-43.73E,30,5.217,32.4664
873,2018/5/7,14:32,42-17.27N,143-43.95E,30,5.162,32.4622
874,2018/5/7,14:33,42-17.58N,143-44.19E,29,5.205,32.4658
875,2018/5/7,14:34,42-17.87N,143-44.42E,29,5.234,32.4727
876,2018/5/7,14:35,42-18.17N,143-44.65E,29,5.27,32.4773
877,2018/5/7,14:36,42-18.47N,143-44.87E,30,5.095,32.4793
878,2018/5/7,14:37,42-18.77N,143-45.11E,29,4.959,32.4902
879,2018/5/7,14:38,42-19.07N,143-45.33E,29,5.145,32.5016
880,2018/5/7,14:39,42-19.37N,143-45.57E,29,5.145,32.5078
881,2018/5/7,14:40,42-19.67N,143-45.80E,29,4.953,32.5063
882,2018/5/7,14:41,42-19.96N,143-46.03E,30,4.701,32.4902
883,2018/5/7,14:42,42-20.26N,143-46.27E,30,4.944,32.4755
884,2018/5/7,14:43,42-20.56N,143-46.50E,29,5.073,32.459
885,2018/5/7,14:44,42-20.86N,143-46.73E,30,5.033,32.4618
886,2018/5/7,14:45,42-21.16N,143-46.96E,30,4.93,32.4736
887,2018/5/7,14:46,42-21.46N,143-47.19E,29,5.019,32.4779
888,2018/5/7,14:47,42-21.76N,143-47.42E,29,5.138,32.4804
889,2018/5/7,14:48,42-22.05N,143-47.65E,30,5.185,32.4868
890,2018/5/7,14:49,42-22.35N,143-47.89E,30,5.043,32.4967
891,2018/5/7,14:50,42-22.66N,143-48.12E,29,4.96,32.5095
892,2018/5/7,14:51,42-22.95N,143-48.35E,29,4.782,32.5361
893,2018/5/7,14:52,42-23.25N,143-48.58E,30,4.766,32.5138
894,2018/5/7,14:53,42-23.55N,143-48.81E,29,4.791,32.5097
895,2018/5/7,14:54,42-23.84N,143-49.04E,29,4.633,32.5161
896,2018/5/7,14:55,42-24.15N,143-49.27E,29,4.587,32.4625
897,2018/5/7,14:56,42-24.44N,143-49.50E,30,4.619,32.4418
898,2018/5/7,14:57,42-24.73N,143-49.73E,30,4.616,32.4338
899,2018/5/7,14:58,42-25.03N,143-49.96E,29,4.658,32.4075
900,2018/5/7,14:59,42-25.33N,143-50.19E,30,4.67,32.3874
901,2018/5/7,15:00,42-25.63N,143-50.43E,29,4.638,32.3921
902,2018/5/7,15:01,42-25.93N,143-50.66E,30,4.58,32.3687
903,2018/5/7,15:02,42-26.22N,143-50.89E,30,4.584,32.3428
904,2018/5/7,15:03,42-26.52N,143-51.13E,30,4.485,32.3384
905,2018/5/7,15:04,42-26.81N,143-51.36E,30,4.535,32.3352
906,2018/5/7,15:05,42-27.11N,143-51.60E,30,4.581,32.3278
907,2018/5/7,15:06,42-27.41N,143-51.83E,30,4.585,32.3229
908,2018/5/7,15:07,42-27.69N,143-52.05E,29,4.57,32.3256
909,2018/5/7,15:08,42-27.99N,143-52.28E,30,4.647,32.3306
910,2018/5/7,15:09,42-28.29N,143-52.51E,29,4.588,32.3318
911,2018/5/7,15:10,42-28.58N,143-52.74E,29,4.622,32.3335
912,2018/5/7,15:11,42-28.87N,143-52.97E,30,4.706,32.3391
913,2018/5/7,15:12,42-29.16N,143-53.19E,29,4.592,32.3541
914,2018/5/7,15:13,42-29.45N,143-53.41E,29,4.712,32.3739
915,2018/5/7,15:14,42-29.74N,143-53.63E,29,4.699,32.3795
916,2018/5/7,15:15,42-30.03N,143-53.85E,29,4.722,32.3911
917,2018/5/7,15:16,42-30.33N,143-54.08E,29,4.77,32.3993
918,2018/5/7,15:17,42-30.63N,143-54.30E,29,4.762,32.4055
919,2018/5/7,15:18,42-30.91N,143-54.52E,28,4.695,32.4138
920,2018/5/7,15:19,42-31.21N,143-54.73E,28,4.705,32.4282
921,2018/5/7,15:20,42-31.50N,143-54.95E,28,4.549,32.4401
922,2018/5/7,15:21,42-31.79N,143-55.16E,28,4.359,32.444
923,2018/5/7,15:22,42-32.09N,143-55.39E,29,4.241,32.4393
924,2018/5/7,15:23,42-32.38N,143-55.62E,28,4.206,32.4286
925,2018/5/7,15:24,42-32.67N,143-55.83E,27,4.237,32.4247
926,2018/5/7,15:25,42-32.96N,143-56.04E,28,4.412,32.3782
927,2018/5/7,15:26,42-33.26N,143-56.26E,29,4.426,32.3292
928,2018/5/7,15:27,42-33.54N,143-56.48E,29,4.312,32.3051
929,2018/5/7,15:28,42-33.84N,143-56.71E,29,4.414,32.2812
930,2018/5/7,15:29,42-34.12N,143-56.92E,29,4.577,32.2514
931,2018/5/7,15:30,42-34.41N,143-57.14E,29,4.596,32.2294
932,2018/5/7,15:31,42-34.70N,143-57.36E,29,4.562,32.2251